User: anonymous   Login
Location: Fours
(44.3167°N, 6.7000°E)
Time: 01:16:32
(UTC+00:00)
Language:

X-37B - Orbit

View from above orbital plane
View from above orbital plane
View from above satellite
View from above satellite

Ground track
Ground track

The orbit data is extracted from the following two-line orbital elements,

1 45606U 20029A   22179.88461011 0.00000000  00000-0  00000-0 0    07
2 45606  45.0295 177.4622 0010612  23.0916 336.9080 15.78184295    07
Epoch (UTC): 28 June 2022 21:13:50
Eccentricity: 0.0010612
inclination: 45.0295°
perigee height: 328 km
apogee height: 343 km
right ascension of ascending node: 177.4622°
argument of perigee: 23.0916°
revolutions per day: 15.78184295
mean anomaly at epoch: 336.9080°
orbit number at epoch: 0

The dashed part of the orbit path shows where the satellite is in the earth's shadow,  

DLR